Powrót do katalogu

STARLINK-35962

AktywnyŁącznośćVLEO
NORAD 66518·PAYLOAD·🇺🇸 United States

Wystrzelony Nov 19, 2025 z Cape Canaveral Space Force Station

Loading…

Następne Przeloty (najbliższe 24 godziny)

TLE

ŚwieżeSource: CelesTrak SupGP

Epoka: Sep 15, 2026, 03:18 UTC

1 66518C 25265C   26258.13798611  .00004261  00000+0  15432-3 0  2583
2 66518  43.0026 288.3353 0001366 267.1573  92.9978 15.27578374    16

Śledź STARLINK-35962 w czasie rzeczywistym z AllMySat

Download on the App Store